Location: Unspecified
(41.5000°N, 0.0000°E)
Time: 14:20:24
(UTC+00:00)

deb Explorer IX - Pass Details

Date: 21 June 2019
Orbit: 539 x 1112 km, 38.8° (Epoch: 16 July)

Event Time Altitude Azimuth Distance (km) Brightness Sun altitude
Rises 17:13:25 0° 273° (W) 3,933 ? 24.1°
Reaches altitude 10° 17:16:15 10° 271° (W) 2,970 ? 23.5°
Maximum altitude 17:23:31 66° 191° (S) 1,154 ? 22.2°
Drops below altitude 10° 17:30:13 10° 111° (ESE) 2,739 ? 21.0°
Sets 17:32:44 0° 108° (ESE) 3,610 ? 20.5°
